パンスターズ彗星

C/2017 K2 ( PanSTARRS )

English version
Home page
Updated on May 19, 2019

---------------------------------------------------------------------

・ プロフィール

発見日 2017年5月21日
発見光度 20.8等
発見者 Pan-STARRS 1 telescope (Haleakala)

・ 写真集

・ 軌道要素

Epoch 2022 Dec. 7.0 TT = JDT 2459920.5
T 2022 Dec. 19.65483 TT                                 MPCW
q   1.7969607            (2000.0)            P               Q
z  -0.0004799      Peri.  236.19615     +0.01817891     +0.04923697
 +/-0.0000019      Node    88.23504     -0.18096586     +0.98245267
e   1.0008624      Incl.   87.56311     -0.98332135     -0.17989573
From 993 observations 2013 May 12-2019 May 14, mean residual 0".5.

・ 星図

・ 光度変化

        m1 = 1.0 + 5 logΔ + 10.0 log r

---------------------------------------------------------------------

軌道要素はM.P.E.C. 2019-J142に掲載されたものです。
星図はステラナビゲータ Ver.10 (アストロアーツ) で作成したものです。
光度グラフはComet for Windowsで作成したものです。

---------------------------------------------------------------------

Copyright(C) Seiichi Yoshida (comet@aerith.net). All rights reserved.